Showing default

ION SCV-008, 55051

Orbit data source: Space-Track

ION SCV-008, 55051 is a payload satellite owned by D-ORBIT (IT) in SSO that was launched on Tue, 03 Jan 2023 UTC via an FALCON 9 launch vehicle from the Air Force Eastern Test Range (AFETR). Payload-class satellites include a variety of spacecraft equipped with specific instruments for various scientific and technological missions. These include communications satellites like Starlink; space stations such as the ISS; scientific satellites like the Hubble; Earth observation satellites from companies like Planet Labs, Umbra, and HawkEye 360; GPS; miniature CubeSats for education and research; and military/defense satellites.

Loading next visibility...
Identifier
55051, 2023-001AU
Orbit
SSO
Country
Flag of ITIT
Related business
Manufacturer
D-ORBIT
Mission
Operational Commercial Technology
Bus & Motor
ION-SC, PM200
Mass
220 kg wet, 150 kg dry
Launch date (UTC)
2023-01-03 (3 years ago)
Launch vehicle
FALCON 9
Launch site
Air Force Eastern Test Range (AFETR)
Object type
Payload
Rocket body
Debris
Shape & HBR
Box, 0.2 m
Radar Cross Section
0.240 m², Medium (>0.1 m² and < 1m²)

Expand to show TLE details & history
Last TLE update: 10 hours ago

TLE from 10 hours ago
0 ION SCV-008
1 55051U 23001AU  25340.93061701  .00011586  00000-0  45829-3 0  9995
2 55051  97.5785  69.4467 0015230 334.2135  25.8342 15.25522842161993
Epoch: 2025-12-06T22:20Z
TLE epoch observation values (Epoch: 2025-12-06T22:20:05.309Z)
Latitude
-0.00001°
Longitude
18.47329°
Altitude
482.896 km
Speed
7.629 km/s
True Right ascension
04h 37m 47s
True Declination
0° 00' 00"
Sunlit
Object was in full shadow at epoch
Visualization orbit readout
Latitude
Unknown
Longitude
Unknown
Altitude
Unknown
Speed
Unknown
Apparent Right ascension
Unknown
Apparent Declination
Unknown
Sunlit
N/A
Visualization observer readout
Local Sidereal Time
06:26:57
Azimuth
Unknown
Elevation
Unknown
Doppler factor
Unknown
Orbital elements
Apogee altitude
496.636 km
Perigee altitude
475.727 km
Semi-major axis
6,864.319 km
Eccentricity
0.00152
Inclination
97.5785°
RAAN
69.4467°
Arg. of periapsis
334.2135°
True anomaly
25.91038°
Mean anomaly
25.8342°
Eccentric anomaly
25.87228°
Mean motion
3.81634 °/min
Orbital period
94.33 mins
BSTAR
0.00045829
Loading maneuver chart data...
Computing Atmospheric mass density...

Documentation

Showing up to 5 results
|